Weather History for Bartow, FL

Change the Weather History Date:

Saturday, December 14, 2013

  Actual Average Record
Temperature  
Mean Temperature 58 °F -  
Max Temperature 60 °F 74 °F 86 °F (1972)
Min Temperature 57 °F 52 °F 24 °F (1962)
Degree Days  
Heating Degree Days 6    
Growing Degree Days 8 (Base 50)    
Moisture  
Dew Point 59 °F    
Average Humidity 98    
Maximum Humidity 100    
Minimum Humidity 88    
Precipitation  
Precipitation 0.00 in - - ()
Sea Level Pressure  
Sea Level Pressure 30.10 in    
Wind  
Wind Speed 0 mph (North)    
Max Wind Speed 0 mph    
Max Gust Speed -    
Visibility 10 miles    
Events      
Averages and records for this station are not official NWS values.
T = Trace of Precipitation, MM = Missing Value Source: NWS Daily Summary

Daily Weather History Graph

Daily Weather History Graph

Search for Another Location

Airport:

Trip Planner

Search our weather history database for the weather conditions in past years. The results will help you decide how hot, cold, wet, or windy it might be!

Date:

Astronomy

Dec. 14, 2013 Rise Set
Actual Time 7:10 AM EST 5:33 PM EST
Civil Twilight 6:44 AM EST 5:59 PM EST
Nautical Twilight 6:15 AM EST 6:28 PM EST
Astronomical Twilight 5:46 AM EST 6:57 PM EST
Moon 3:46 PM EST (12/14) 4:38 AM EST (12/14)
Length of Visible Light 11h 14m
Length of Day
10h 23m
Waxing Gibbous, 93% of the Moon is Illuminated
Dec 14
Waxing Gibbous
Dec 17
Full
Dec 25
Last Quarter
Jan 1
New
Jan 7
First Quarter

Hourly Weather History & Observations

Time (EST) Temp. Dew Point Humidity Pressure Visibility Wind Dir Wind Speed Gust Speed Precip Events Conditions
12:15 AM 59.0 °F 55.4 °F 88% 30.14 in 10.0 mi Calm Calm - N/A   Clear
12:35 AM 60.8 °F 57.2 °F 88% 30.13 in 10.0 mi Calm Calm - N/A   Clear
12:55 AM 59.0 °F 57.2 °F 94% 30.13 in 10.0 mi Calm Calm - N/A   Clear
1:15 AM 57.2 °F 57.2 °F 100% 30.13 in 10.0 mi Calm Calm - N/A   Clear
1:35 AM 57.2 °F 57.2 °F 100% 30.12 in 10.0 mi Calm Calm - N/A   Clear
1:55 AM 57.2 °F 57.2 °F 100% 30.11 in 10.0 mi Calm Calm - N/A   Clear
2:15 AM 57.2 °F 57.2 °F 100% 30.11 in 10.0 mi Calm Calm - N/A   Scattered Clouds
2:35 AM 57.2 °F 57.2 °F 100% 30.10 in 10.0 mi Calm Calm - N/A   Mostly Cloudy
2:55 AM 57.2 °F 57.2 °F 100% 30.10 in 10.0 mi Calm Calm - N/A   Partly Cloudy
3:15 AM 59.0 °F 59.0 °F 100% 30.10 in 10.0 mi Calm Calm - N/A   Clear
3:35 AM 59.0 °F 59.0 °F 100% 30.10 in 10.0 mi Calm Calm - N/A   Clear
3:55 AM 59.0 °F 59.0 °F 100% 30.09 in 10.0 mi Calm Calm - N/A   Clear
4:15 AM 59.0 °F 59.0 °F 100% 30.09 in 10.0 mi Calm Calm - N/A   Clear
4:35 AM 60.8 °F 60.8 °F 100% 30.08 in 10.0 mi Calm Calm - N/A   Partly Cloudy
4:55 AM 59.0 °F 59.0 °F 100% 30.08 in 10.0 mi Calm Calm - N/A   Scattered Clouds
5:15 AM 60.8 °F 60.8 °F 100% 30.08 in 10.0 mi Calm Calm - N/A   Partly Cloudy
5:35 AM 60.8 °F 60.8 °F 100% 30.08 in 10.0 mi Calm Calm - N/A   Clear
5:55 AM 60.8 °F 60.8 °F 100% 30.09 in 10.0 mi Calm Calm - N/A   Clear
6:15 AM 60.8 °F 60.8 °F 100% 30.09 in 10.0 mi Calm Calm - N/A   Partly Cloudy